Theta_e
275 275 275 275 276 275 276 276 277 277 277 277 276 276 275 275 272 271 271 272 273 275 276 275 276 278 279 279 280 280 279 281 282 281 281 280 280 283 286 287 289 291 292 291 291 291 291 292 292 293 294 295 296 297 298 299 301 303 304 304 305 306 308 309 309 310 310 310 311 315 320 324 327 329
275 276 275 275 275 275 275 276 276 276 276 275 276 275 275 275 273 273 271 271 274 275 276 276 276 278 277 278 278 279 279 282 281 280 280 280 280 284 285 286 287 288 289 289 290 290 290 291 291 291 292 292 294 296 297 298 300 301 303 305 307 307 307 308 308 308 310 311 312 312 314 319 325 328
275 274 274 274 274 275 275 275 275 276 276 275 275 275 275 275 275 274 273 270 274 276 275 276 277 276 277 277 277 278 278 280 280 279 279 279 281 282 282 283 285 286 287 288 289 289 289 289 290 290 291 293 294 295 296 297 298 299 301 303 305 306 307 307 307 309 309 310 311 313 313 315 319 328
275 273 273 273 273 274 274 274 274 274 275 275 274 274 274 274 274 274 273 271 271 275 275 275 275 276 275 276 275 276 277 278 280 278 277 278 280 279 279 281 283 284 286 287 287 288 288 289 289 289 290 291 293 294 295 296 297 298 300 302 302 304 304 305 306 307 308 308 309 311 313 314 316 322
273 273 272 273 273 273 272 273 273 273 273 273 273 274 273 273 273 273 272 270 270 273 275 274 274 274 274 273 274 274 275 275 276 278 276 277 277 277 278 278 281 283 284 285 285 286 287 288 288 289 290 291 292 293 294 295 296 297 299 299 299 301 305 307 306 306 307 307 307 309 312 313 315 317
273 272 271 272 272 272 272 272 272 272 272 272 272 272 272 272 272 273 271 271 270 269 272 272 273 272 274 272 274 273 273 273 275 275 276 277 277 276 277 276 277 281 282 284 285 287 287 288 289 289 290 291 293 293 294 294 295 297 298 298 299 298 301 306 307 306 306 307 308 308 310 312 314 316
271 271 271 271 271 271 271 271 271 271 271 271 271 271 271 271 271 272 272 270 268 268 269 271 270 271 272 272 272 273 274 274 274 273 274 275 276 276 276 276 276 280 282 284 285 286 287 288 289 289 290 291 291 292 293 294 294 294 297 299 299 298 300 303 305 306 305 307 307 307 307 309 312 315
270 270 270 270 270 270 270 270 270 271 271 270 270 270 271 271 270 271 271 271 270 269 268 270 270 271 271 272 273 273 274 273 273 273 274 275 275 275 276 276 275 278 282 283 285 286 287 287 288 288 289 290 291 292 292 293 294 294 294 295 297 299 299 301 303 304 304 306 305 306 307 308 308 312
270 270 269 270 270 270 269 269 270 270 270 270 270 270 270 270 271 271 271 271 271 270 269 269 271 272 272 273 273 274 272 273 273 273 273 274 274 274 275 276 277 280 282 283 283 284 284 286 287 288 289 289 290 291 292 293 293 293 294 294 295 297 300 300 301 302 303 304 303 305 305 307 308 309
269 269 269 270 270 270 269 269 270 270 270 270 270 270 271 271 271 271 271 271 271 270 270 270 270 272 272 272 272 273 273 273 272 272 273 274 274 274 274 275 276 277 277 277 278 280 281 283 285 286 287 289 289 290 291 292 293 293 293 293 294 295 298 300 301 301 302 302 303 303 304 305 306 308
270 270 270 270 270 270 270 270 270 270 271 271 271 271 271 272 271 271 271 271 271 270 270 271 271 271 272 273 271 273 275 274 274 272 272 272 274 274 274 274 275 276 277 279 282 281 281 283 283 284 286 288 289 290 291 292 292 292 292 294 295 295 296 297 300 301 301 302 302 302 302 303 305 306
270 271 271 271 271 271 271 271 271 272 271 272 272 272 272 272 272 271 271 271 271 271 271 270 270 271 271 272 274 274 274 273 273 274 273 271 272 273 274 275 274 275 276 276 277 280 281 281 283 284 285 287 289 290 290 291 291 292 292 293 294 295 296 296 298 300 300 300 301 302 302 302 302 305
271 272 272 272 272 273 275 276 276 276 276 274 274 275 275 274 274 273 272 271 271 271 271 270 271 271 271 272 272 271 272 271 272 273 273 272 273 274 274 274 276 276 275 276 276 277 278 278 279 281 282 283 284 284 285 286 288 290 292 294 294 294 296 297 298 299 299 300 300 301 301 301 301 302
273 273 273 274 276 276 277 277 278 278 278 279 277 276 275 275 274 274 273 273 273 271 270 270 270 270 270 271 272 272 273 274 275 274 273 272 273 273 274 275 276 278 277 276 275 277 279 279 279 280 280 282 283 283 285 287 289 290 292 294 295 295 296 297 298 298 299 300 300 300 300 300 301 301
273 274 274 274 275 275 276 275 277 277 278 278 279 279 279 279 276 274 273 273 274 273 272 273 273 272 272 273 274 273 274 274 274 273 274 273 273 272 271 270 275 279 278 277 276 277 279 279 278 279 280 281 283 283 283 285 286 289 291 292 294 295 297 298 298 299 299 300 300 300 300 300 301 301
274 274 274 274 274 274 274 274 274 276 277 278 278 278 279 279 279 280 276 274 274 274 273 272 273 273 272 273 273 273 273 273 273 274 274 273 273 272 272 272 271 277 280 277 276 275 278 279 278 278 280 281 281 282 284 286 287 288 289 291 293 294 296 298 299 299 299 299 300 300 300 300 300 301
274 274 273 273 273 274 276 275 274 274 274 276 277 278 278 278 279 279 280 280 277 276 274 273 273 273 273 273 273 274 274 275 273 274 273 273 273 273 272 272 273 275 278 276 274 273 275 276 276 277 279 280 280 281 284 286 287 288 291 292 293 294 295 296 297 297 298 299 300 300 300 300 300 300
274 273 272 272 272 273 273 274 274 274 274 274 274 274 275 275 277 279 279 279 279 278 275 274 273 274 275 273 274 275 276 274 273 273 273 274 273 273 272 274 274 275 277 275 274 273 274 276 276 276 278 280 280 281 284 286 288 289 291 292 294 294 295 296 297 297 298 299 299 300 300 300 300 300
273 273 273 272 272 273 273 273 274 274 274 275 275 275 275 275 276 276 275 275 275 275 275 275 275 275 275 275 276 276 276 276 275 275 274 274 274 274 275 275 275 275 277 276 275 271 274 277 276 276 278 280 280 281 284 286 289 291 292 293 294 295 296 296 296 297 297 298 299 300 300 300 300 300
273 273 273 272 272 273 273 275 277 277 275 275 274 274 274 274 274 275 277 279 279 278 277 277 277 277 277 279 278 278 278 277 277 277 276 276 275 274 272 271 273 273 276 277 275 273 274 277 276 276 279 280 280 282 284 288 290 291 292 293 293 294 294 295 295 296 297 297 298 299 300 300 300 300
272 273 273 273 273 273 273 275 277 278 277 274 274 273 273 273 274 274 276 278 279 279 279 280 280 281 281 281 282 282 282 280 279 277 275 274 275 272 271 271 272 273 276 277 277 275 274 277 277 277 279 280 281 282 282 283 287 288 291 293 293 293 294 294 295 296 297 297 298 299 300 300 300 299
272 273 275 275 274 273 273 275 277 278 276 274 274 273 273 273 272 273 274 274 274 277 278 278 279 279 280 280 280 280 280 280 279 274 272 274 275 273 273 272 273 275 276 278 279 276 275 277 278 277 279 280 282 282 283 284 286 289 291 291 292 293 294 294 296 297 297 298 298 299 300 300 299 301
272 273 274 275 275 274 274 276 277 277 276 274 274 273 272 271 271 271 272 271 271 273 273 273 273 272 273 272 271 272 277 278 277 275 274 275 274 273 273 273 273 272 274 277 280 275 275 276 278 278 277 276 280 282 282 283 284 285 286 287 289 292 294 295 294 294 294 295 297 299 300 300 300 301
272 273 273 273 274 275 275 276 276 277 278 275 274 273 271 270 269 271 271 273 273 271 270 269 269 269 269 269 270 271 272 273 274 275 275 275 275 274 273 274 273 272 273 278 281 277 277 278 277 279 278 276 275 280 283 285 286 286 287 288 288 291 292 292 292 293 294 295 296 298 300 301 300 302
271 271 271 271 273 274 275 275 277 277 277 276 274 272 270 270 271 275 272 271 272 267 267 267 267 268 268 269 269 270 271 272 273 275 277 278 277 276 275 274 274 274 275 278 281 277 275 277 277 278 278 278 278 278 280 283 286 287 287 287 287 289 289 290 291 292 293 295 298 299 300 301 301 302
271 271 270 270 271 273 275 276 276 276 276 276 272 270 274 276 276 273 271 268 266 265 265 265 266 267 267 268 268 269 270 271 272 273 274 276 277 278 278 277 275 274 274 278 282 279 277 276 277 277 277 277 278 279 279 280 282 284 285 286 287 288 289 289 290 291 292 293 297 300 301 302 302 302
270 270 270 270 272 274 275 275 275 275 275 273 271 274 275 275 275 272 266 265 264 264 265 265 265 266 267 267 267 268 269 270 271 271 272 273 273 273 274 278 279 278 279 279 280 280 279 278 280 278 277 278 277 278 279 279 280 284 285 286 287 288 289 289 289 289 291 292 297 301 301 302 302 303
270 269 269 270 274 274 274 273 273 273 272 270 272 273 274 273 271 266 264 264 264 264 264 265 265 265 266 267 267 268 269 269 270 270 271 271 272 273 274 276 278 280 280 280 280 280 280 279 279 280 280 278 277 276 277 281 282 282 283 286 287 287 288 288 288 289 290 292 298 302 301 302 303 304
269 271 273 273 273 272 272 272 271 270 269 271 272 272 272 270 265 263 263 263 263 263 264 265 265 265 266 267 268 269 269 270 270 270 270 271 272 273 275 276 278 279 280 281 281 281 281 280 280 281 280 280 278 279 279 279 281 282 284 284 283 285 286 287 288 289 289 290 298 302 301 303 304 304
272 272 272 271 270 269 269 267 266 266 266 270 270 270 269 264 263 262 262 263 263 264 264 264 264 265 267 267 268 269 269 269 268 269 269 269 270 271 272 272 273 275 279 281 282 282 282 281 281 281 280 281 281 279 280 280 280 282 283 283 283 285 286 286 287 288 289 291 298 303 304 306 306 304
266 267 267 266 268 267 268 268 267 267 266 264 263 263 263 262 262 262 263 263 264 264 264 264 265 266 267 268 268 267 268 268 268 269 269 269 269 269 270 270 270 272 275 279 282 283 283 283 283 282 280 280 281 281 281 282 280 281 282 284 284 281 284 286 287 288 290 290 294 303 304 306 306 303
265 262 264 263 261 261 260 261 259 260 260 261 261 261 261 261 263 265 267 267 265 265 265 265 266 265 266 265 266 267 267 267 268 269 268 268 267 268 269 268 268 270 272 275 279 283 284 284 283 283 283 282 280 281 282 282 281 282 282 284 284 285 285 285 286 287 289 290 290 299 304 305 305 305
260 258 256 256 258 257 258 258 257 258 258 259 260 260 260 261 262 262 262 262 262 263 264 264 264 264 265 265 266 267 266 267 267 268 267 268 267 268 268 267 267 268 269 272 276 280 283 284 284 284 284 284 284 283 282 280 282 283 282 283 284 284 285 286 286 287 289 289 289 295 301 304 306 306
254 255 254 255 255 256 256 256 257 257 257 258 258 259 262 261 260 261 262 262 262 263 264 264 264 264 265 265 266 266 266 266 267 267 268 266 267 266 266 265 266 268 269 271 273 277 281 283 284 284 284 284 285 285 284 282 281 283 283 284 284 283 285 286 287 288 289 289 289 293 299 302 305 307
254 254 254 255 254 255 255 255 256 257 257 257 258 258 259 260 261 261 261 262 263 263 263 264 264 265 265 265 266 265 266 266 266 266 267 266 266 265 265 265 265 266 267 269 271 274 279 282 283 282 283 283 283 284 286 285 283 283 284 284 284 284 284 286 287 287 288 289 290 291 297 300 303 306
255 253 253 253 253 253 254 255 256 256 256 257 257 258 258 259 260 261 261 262 263 263 263 263 264 265 265 266 266 266 266 266 265 265 265 265 265 265 265 265 265 266 267 268 270 274 277 280 282 280 279 279 279 279 281 286 286 284 283 283 284 284 285 286 287 287 288 288 290 293 297 298 301 304
253 252 252 251 252 253 254 254 255 255 256 257 257 258 258 258 259 260 262 263 262 263 263 264 264 265 265 266 266 266 266 265 264 265 264 264 264 264 264 264 265 266 266 268 270 272 275 277 281 281 279 278 278 277 280 283 285 286 285 283 284 285 285 286 286 286 287 289 289 294 299 300 301 304
251 251 251 252 252 252 254 254 255 255 256 256 257 258 258 259 260 261 262 262 262 263 264 264 265 265 266 266 266 265 265 265 265 264 264 264 263 263 263 263 264 265 265 266 268 270 273 275 278 281 280 279 278 278 279 283 284 285 286 286 284 285 286 286 285 286 287 290 292 297 302 300 301 304
251 251 252 251 251 251 252 253 254 254 255 256 256 257 258 258 259 260 260 261 262 263 264 264 264 265 266 266 266 266 265 264 264 264 263 263 263 263 263 264 264 264 265 265 267 269 272 274 277 280 282 280 280 280 282 282 283 286 288 287 286 286 286 286 286 287 288 290 294 300 302 303 304 301
251 251 250 251 251 251 252 253 253 254 254 255 256 256 257 258 259 259 260 261 263 264 264 264 265 266 266 266 266 266 265 264 264 264 263 263 264 264 264 264 264 264 264 265 265 267 269 271 275 279 282 284 284 285 285 285 286 287 287 288 289 287 287 288 287 288 289 292 297 299 299 301 301 302
250 249 249 250 250 250 251 252 252 253 254 255 255 258 258 258 258 259 260 263 263 263 263 264 265 265 266 266 266 265 264 264 264 264 264 264 264 264 264 265 264 264 264 264 265 266 267 270 275 280 283 285 286 286 284 282 281 283 284 286 289 289 288 288 290 290 290 293 297 299 299 299 299 300
248 248 248 248 248 250 250 251 252 253 254 255 255 256 257 258 258 263 262 262 262 263 263 264 265 266 266 266 266 265 264 264 264 264 264 263 263 263 264 264 263 264 263 263 264 265 269 272 274 277 280 284 284 282 281 282 282 283 285 287 288 289 289 288 288 289 293 294 297 298 299 299 300 299
249 247 248 249 249 250 250 251 252 253 254 255 255 256 256 257 258 259 260 261 262 263 263 264 265 266 266 266 266 265 264 264 264 264 264 264 263 263 263 263 263 263 264 264 266 267 268 270 272 274 276 280 283 284 282 283 284 284 285 286 287 289 292 291 290 289 289 291 294 300 303 300 298 297
246 246 247 248 248 249 250 250 251 253 253 254 255 256 256 257 258 259 260 261 262 263 264 265 266 266 266 266 265 265 265 264 264 264 264 263 263 263 263 263 264 264 264 265 265 266 267 269 271 273 275 278 282 283 283 284 284 285 286 287 288 288 290 293 293 290 289 290 290 292 297 298 300 299
246 246 246 247 248 249 250 250 251 252 253 254 255 256 257 258 259 260 260 261 262 263 264 265 266 266 266 265 265 264 264 266 265 264 264 264 264 264 264 264 263 264 264 265 265 265 267 268 270 274 276 279 282 283 284 284 284 285 286 286 286 288 290 292 293 292 292 292 293 293 295 297 298 297
Wind_Speed
4 4 4 4 4 2 1 3 4 5 5 6 5 5 6 7 10 13 16 24 10 5 4 8 1 3 5 1 3 9 9 11 14 11 11 13 12 17 25 28 28 28 30 29 30 30 31 31 32 32 33 34 35 36 36 35 34 32 34 37 37 38 37 36 35 34 33 32 32 28 25 23 26 32
3 4 4 3 4 2 2 4 4 4 5 5 5 5 4 4 8 9 13 23 17 11 9 6 9 3 3 9 12 8 10 14 16 12 11 10 12 23 28 30 31 31 31 31 31 31 31 32 32 33 34 34 36 37 37 36 36 36 36 36 37 38 38 37 36 34 32 31 31 30 28 28 26 30
3 4 4 3 2 1 2 3 3 4 4 6 5 5 5 5 6 9 10 15 23 1 16 7 1 12 15 8 10 12 9 10 15 11 11 13 19 29 24 30 30 31 31 30 31 32 33 33 33 34 34 35 35 36 37 37 37 37 37 37 36 37 40 40 38 37 35 32 31 30 30 31 28 28
3 3 3 2 2 2 2 3 4 4 4 3 4 3 4 4 5 6 9 13 25 19 8 18 13 6 15 14 11 12 11 9 18 13 12 15 24 17 14 23 29 29 31 32 33 33 33 33 34 35 35 36 36 36 36 37 38 38 38 38 37 37 40 41 40 38 36 33 32 31 29 29 30 26
3 3 3 3 3 1 3 4 4 4 4 4 5 5 5 6 6 7 9 13 20 22 11 11 15 11 12 17 5 10 12 10 7 13 13 14 12 13 11 11 21 29 31 33 34 34 34 34 34 34 35 35 36 36 36 37 37 37 38 38 38 38 37 39 42 38 36 36 33 32 29 30 29 27
4 3 3 3 3 2 4 5 5 5 5 5 6 6 6 6 6 6 8 11 14 23 20 13 13 13 7 17 14 10 12 12 9 11 13 11 12 12 12 12 14 28 31 32 33 34 35 33 33 33 33 34 35 35 36 37 37 38 38 37 37 39 41 36 37 38 34 35 34 30 29 30 30 28
3 3 3 4 3 3 4 5 6 5 6 5 7 7 6 7 7 7 8 10 13 18 21 16 16 16 10 10 14 13 11 13 12 13 14 14 11 11 12 13 12 24 30 32 33 33 33 33 32 33 33 34 34 35 36 36 37 38 37 36 38 36 38 38 33 35 36 36 39 34 31 31 32 31
3 3 4 4 3 4 6 7 6 6 6 6 6 7 7 8 8 8 9 11 12 14 18 20 14 14 16 12 9 9 11 14 13 12 12 12 15 13 12 12 13 19 30 32 33 32 31 32 33 33 33 33 34 35 35 36 36 38 38 39 39 39 37 34 32 31 33 34 39 34 33 32 34 33
3 4 5 5 4 5 7 7 7 6 7 7 6 7 7 8 8 9 10 11 13 15 18 19 16 14 15 15 15 13 15 16 13 12 14 13 13 15 14 12 12 22 31 32 32 31 32 32 32 32 32 33 33 34 34 34 35 36 39 40 41 39 38 35 33 32 30 29 29 30 31 32 34 35
4 5 6 6 6 7 8 8 7 7 8 7 8 9 9 10 10 12 13 13 14 16 17 19 19 16 14 16 17 14 13 16 16 12 14 13 12 13 14 13 10 9 10 11 13 19 23 27 31 33 32 33 35 34 35 34 34 37 37 39 40 40 38 34 33 33 32 29 29 28 28 30 33 34
6 6 6 6 7 8 8 8 8 8 8 8 11 11 12 13 13 13 12 12 14 15 16 15 18 20 13 12 20 15 15 17 15 15 16 18 13 10 12 15 10 9 14 19 28 27 25 29 27 30 34 36 35 34 33 34 36 38 38 39 38 38 37 37 32 32 32 31 29 28 27 28 31 34
7 7 7 8 8 9 8 9 9 10 10 10 12 11 11 12 13 12 12 12 14 14 17 19 13 17 15 13 15 18 14 16 16 15 13 17 19 13 12 13 14 13 12 16 14 18 22 22 27 31 31 31 29 29 29 32 36 40 42 40 39 39 37 37 36 32 31 31 30 30 28 28 29 31
7 7 7 8 8 9 13 17 15 14 14 10 9 9 9 10 11 13 12 11 13 15 15 16 14 16 15 15 14 16 15 17 15 17 12 13 15 13 17 13 11 12 12 13 13 15 11 13 12 12 10 13 22 24 30 27 37 42 40 35 37 37 39 39 36 34 32 31 31 31 30 29 30 31
7 7 8 8 15 17 17 17 19 19 20 21 17 13 11 11 11 12 12 11 9 10 12 12 12 13 14 15 15 15 13 17 15 15 16 18 15 15 18 17 11 10 12 13 14 14 9 10 12 10 12 13 15 14 16 15 19 24 32 33 35 36 37 39 36 35 33 32 31 31 30 30 31 32
7 8 9 9 11 13 15 14 19 19 20 20 21 24 24 21 16 14 14 13 11 12 15 14 13 14 16 21 15 18 15 17 16 18 20 17 14 14 16 21 13 6 12 12 12 14 6 6 13 13 13 13 11 13 14 26 32 33 34 34 33 36 38 36 35 35 33 31 31 31 31 31 32 32
7 8 8 9 7 8 10 10 11 14 19 21 22 24 24 25 26 25 19 15 13 13 14 14 16 15 14 19 17 14 14 16 18 20 17 17 16 15 16 16 18 3 5 8 12 19 10 7 12 14 12 12 12 14 22 31 33 35 36 34 32 29 28 26 29 32 32 31 31 32 32 32 33 33
8 8 8 8 9 7 14 12 11 11 12 17 23 24 25 26 27 26 29 28 22 16 16 16 19 17 12 15 21 16 15 17 22 17 19 18 14 15 16 17 16 11 5 11 12 18 18 3 12 13 14 12 12 15 23 30 33 35 34 34 31 30 29 26 27 30 31 30 31 32 33 33 34 33
8 9 9 8 9 9 9 10 11 11 12 12 13 13 13 13 19 24 27 29 30 26 19 19 20 21 18 19 18 18 18 19 18 18 17 18 16 16 20 21 22 16 6 12 11 17 22 8 13 17 15 12 12 13 21 31 34 33 33 31 30 29 30 28 26 26 27 30 32 32 33 34 34 34
9 9 9 9 10 10 11 10 12 13 12 12 12 13 14 13 12 13 15 17 16 18 18 19 21 23 22 23 23 22 23 20 20 17 18 18 17 20 18 20 20 18 11 11 13 16 20 8 12 18 15 13 13 14 21 31 32 33 32 30 30 29 30 27 26 27 28 29 31 33 33 34 35 35
8 8 9 9 10 11 11 14 19 18 14 13 14 14 13 14 16 16 16 24 25 23 20 18 17 16 18 25 24 22 20 14 14 15 16 16 15 16 18 19 16 15 11 11 13 14 18 8 11 17 12 12 14 15 13 21 29 31 32 32 30 31 29 29 28 28 29 30 31 33 34 35 35 35
8 8 9 10 10 11 11 15 19 20 20 13 13 15 18 16 15 13 14 20 25 26 27 31 33 35 35 36 37 37 39 30 24 19 19 18 11 11 13 16 16 15 11 9 13 13 18 10 11 15 13 12 13 15 15 15 22 32 32 30 30 31 30 30 30 30 31 31 33 33 35 35 34 36
8 9 15 13 10 11 12 16 19 20 17 13 13 14 14 15 14 13 12 13 15 25 29 31 32 31 30 31 34 36 36 36 30 18 20 19 12 16 14 17 14 14 8 8 8 12 16 11 10 13 13 13 12 13 13 15 16 24 23 28 30 32 32 30 29 27 26 30 33 35 36 35 34 27
7 8 9 12 12 12 13 18 18 20 17 13 12 12 15 16 17 16 16 15 15 14 16 16 16 16 20 19 18 22 36 36 32 22 19 13 14 15 14 15 13 15 12 8 10 14 16 12 12 11 12 12 12 10 13 13 14 13 13 14 17 25 23 20 21 25 29 31 34 36 37 36 33 21
7 7 8 9 13 15 15 16 18 19 22 15 12 11 12 13 15 14 15 16 16 18 15 17 17 19 19 18 18 18 19 20 19 19 16 14 16 16 18 16 15 16 11 5 10 11 11 9 12 9 12 12 14 10 9 11 10 11 10 10 8 14 17 21 20 26 30 32 37 38 39 37 34 20
5 5 7 7 11 14 15 16 19 21 21 20 13 10 10 12 17 21 15 17 22 16 17 16 13 13 13 16 16 16 17 17 16 16 18 15 15 16 16 15 15 15 14 12 16 11 15 10 13 10 12 13 14 14 12 11 11 10 9 10 12 12 11 11 10 14 21 32 36 38 39 38 39 29
5 7 7 7 10 14 16 18 20 20 19 21 12 11 19 24 26 19 13 12 12 12 11 12 12 13 13 15 16 15 15 15 17 17 18 18 17 15 13 16 15 15 14 13 22 16 13 12 12 13 13 14 16 12 15 13 12 13 12 13 12 12 11 11 11 14 16 17 19 26 32 40 36 39
5 6 7 8 13 15 16 18 18 18 20 16 12 20 22 23 26 21 9 10 11 11 12 12 13 13 12 13 13 15 14 15 17 17 16 18 18 18 19 19 17 18 17 15 14 15 15 13 11 16 14 15 16 12 12 13 12 8 11 12 11 11 10 10 13 14 16 17 20 31 35 37 37 36
5 7 8 9 14 16 16 16 16 16 16 13 19 21 22 23 21 11 11 10 11 12 12 12 11 12 13 15 15 13 15 17 18 19 18 18 19 18 18 19 19 18 18 18 17 16 16 15 13 14 15 16 15 15 14 12 13 13 13 12 10 10 11 11 13 15 17 18 19 20 21 22 23 26
4 9 12 13 14 14 14 15 14 12 13 17 19 21 22 20 9 10 9 10 10 11 11 10 10 12 13 15 16 17 18 19 19 17 17 16 17 17 16 17 17 18 15 15 16 16 16 15 16 15 14 14 17 14 14 16 12 12 11 11 12 11 10 11 12 14 16 18 20 20 21 20 19 20
10 9 10 12 11 10 10 9 7 6 9 16 19 20 18 9 8 8 9 10 10 9 10 11 13 14 15 16 17 19 18 16 15 15 15 15 15 13 15 17 17 17 17 18 18 18 18 17 17 15 15 14 15 16 16 17 16 16 15 14 16 16 14 14 15 15 15 15 16 17 18 18 19 17
0 3 4 5 9 8 12 12 12 11 12 10 9 7 7 7 8 8 8 9 11 13 12 13 13 14 15 16 15 14 14 15 14 13 16 15 16 16 15 16 18 17 17 17 16 16 17 17 17 17 17 17 16 18 16 17 17 17 15 12 12 14 15 9 10 12 13 14 16 14 16 17 16 19
1 0 4 6 4 4 5 5 4 4 4 7 7 8 7 8 9 11 17 16 11 11 12 13 14 14 14 14 14 14 13 14 14 13 14 14 17 15 15 16 17 16 17 17 16 16 18 17 16 16 17 16 17 15 14 16 17 17 16 13 12 15 16 15 15 14 14 12 15 14 16 16 16 16
2 2 2 2 4 3 5 5 5 6 6 7 7 8 9 8 8 8 7 9 10 11 11 12 13 14 14 14 14 14 14 14 14 13 14 14 14 16 13 16 17 17 17 17 15 15 13 13 16 17 16 15 17 17 16 16 16 15 16 13 12 15 15 15 13 15 13 10 13 13 14 16 16 16
2 0 1 3 3 4 4 5 6 7 7 8 8 7 10 10 9 9 9 9 10 11 12 12 13 14 14 14 14 14 15 15 14 14 16 16 14 15 15 16 17 15 16 16 16 16 15 13 12 13 14 16 16 17 17 15 16 16 14 13 12 15 16 13 13 15 13 11 12 13 12 14 16 16
1 0 2 3 3 3 3 4 6 6 7 8 8 9 8 8 10 11 9 10 11 12 12 13 13 13 14 14 14 15 15 16 16 14 13 13 14 14 15 16 17 17 16 16 16 15 15 15 14 13 9 11 14 15 20 19 14 16 13 14 13 15 16 13 12 12 12 12 11 14 11 13 15 16
0 0 1 3 4 3 4 5 6 6 7 8 8 9 10 10 9 10 10 12 11 12 13 13 14 14 14 14 14 14 15 16 15 15 15 14 14 15 14 15 17 18 16 16 15 14 14 16 15 15 14 12 13 12 13 22 25 15 14 15 14 14 15 14 12 12 12 12 12 14 13 15 16 16
1 1 2 3 3 3 4 5 6 7 7 8 8 8 9 11 11 11 12 14 12 12 13 13 13 14 14 14 14 15 15 15 15 15 15 15 14 14 16 16 17 16 17 16 14 16 15 16 16 15 14 13 13 14 14 4 21 30 18 16 16 13 14 13 11 11 12 12 14 15 13 12 14 16
1 1 2 3 3 3 4 5 6 7 7 8 8 9 9 9 11 12 12 11 12 12 12 12 13 15 14 14 14 15 15 14 14 14 15 15 15 15 14 16 16 15 14 15 15 15 14 15 16 16 16 13 13 14 13 10 8 13 25 18 15 15 11 12 12 12 13 11 13 14 13 13 14 15
1 1 2 3 3 3 5 6 6 7 8 8 8 9 10 10 10 11 11 11 12 12 12 13 14 14 15 15 14 14 15 15 16 15 15 14 14 15 16 15 16 15 15 17 15 14 14 15 15 15 16 14 13 10 10 11 11 6 11 27 18 14 13 11 12 12 11 11 12 12 12 11 12 19
2 3 3 2 3 3 5 6 6 7 8 8 8 9 9 11 11 11 11 12 12 13 13 14 16 16 14 14 15 14 15 16 16 15 15 15 16 15 14 14 16 17 17 18 17 16 14 15 15 15 14 14 12 12 13 13 12 12 13 15 27 21 15 10 12 11 11 12 12 12 14 14 15 15
2 2 2 1 3 4 5 6 6 7 8 8 9 9 10 10 11 11 11 13 14 14 14 14 14 15 15 15 15 15 16 16 15 15 15 15 16 17 18 20 17 15 16 19 17 17 17 15 18 27 26 17 13 10 11 13 14 14 14 14 16 25 27 22 17 13 13 12 12 14 15 15 14 14
2 2 3 2 4 5 5 6 6 7 8 8 8 9 9 10 10 18 16 16 14 14 13 14 14 14 14 14 15 15 15 16 16 16 15 15 15 16 18 15 14 16 16 18 18 18 17 17 19 19 18 17 13 13 14 13 15 14 13 12 10 14 23 28 30 28 21 15 12 15 14 13 13 16
1 2 4 5 4 5 5 6 7 7 8 8 8 9 9 10 10 11 10 12 13 13 13 14 14 13 13 14 15 15 15 16 16 17 16 16 16 16 15 13 16 16 16 17 17 17 18 16 15 15 15 16 15 13 15 15 13 13 13 12 12 10 11 19 27 31 31 32 24 15 14 14 15 16
2 3 5 5 5 5 5 6 7 7 8 8 8 8 8 9 10 11 11 12 13 14 14 14 14 13 14 15 15 15 14 15 15 17 17 17 16 14 14 14 17 18 17 16 17 17 15 15 15 15 15 16 14 13 13 13 13 12 12 13 11 11 13 10 10 15 20 27 31 26 21 25 23 20
3 5 5 5 5 5 6 6 7 7 7 8 8 8 9 9 10 11 12 12 13 14 15 14 14 13 14 15 15 16 16 18 17 15 15 15 13 14 15 16 18 18 17 15 16 17 15 15 15 14 15 16 15 14 14 14 14 12 13 13 13 12 12 9 9 9 9 10 19 27 23 25 27 30
Wind_Direction
235 245 241 239 251 250 226 248 244 249 253 251 247 242 249 278 286 303 311 299 294 303 109 326 207 62 338 336 317 321 308 300 299 293 296 297 296 295 296 295 294 294 293 292 291 290 288 287 287 285 284 285 285 282 279 279 280 280 277 272 267 268 268 267 269 271 271 271 271 275 276 266 255 237
228 239 248 238 251 243 229 239 251 248 248 251 245 239 245 234 261 281 290 293 291 304 285 164 292 330 324 324 310 299 298 299 301 295 292 294 296 299 298 297 294 292 291 290 289 288 288 288 287 287 286 284 283 281 279 277 276 276 276 275 271 265 264 264 263 264 266 266 265 264 267 269 264 238
222 237 246 238 245 237 235 255 260 258 255 259 255 247 251 237 246 270 276 287 286 109 295 292 145 313 309 309 306 307 298 300 304 303 304 301 299 297 294 292 290 289 290 289 288 287 288 287 286 285 284 283 280 278 277 276 275 274 273 271 269 269 266 263 262 262 262 264 264 262 257 260 262 247
220 231 248 258 266 273 269 264 260 258 257 255 252 254 248 251 252 265 268 265 278 290 285 296 302 305 306 308 308 300 301 302 301 299 296 296 296 288 283 286 287 287 288 288 288 287 287 285 285 284 283 282 280 278 276 276 275 273 272 269 267 265 265 263 260 259 260 261 264 261 257 255 256 255
227 235 245 258 258 254 268 263 260 256 262 261 261 259 252 255 250 248 260 268 280 288 283 289 298 314 316 298 308 298 294 299 304 302 293 284 276 283 280 281 282 285 286 286 286 286 285 284 283 282 281 280 279 278 277 276 274 272 270 268 265 264 265 264 258 255 257 258 258 258 260 255 254 249
219 217 237 253 255 249 258 264 258 260 260 259 261 251 248 250 246 239 254 268 277 284 297 292 294 292 299 292 303 300 302 298 297 287 289 284 285 282 281 281 279 282 284 284 284 285 285 284 282 281 280 280 279 278 277 276 275 273 268 268 265 259 261 262 262 252 253 254 254 257 257 259 256 251
214 231 245 255 251 251 257 253 255 251 254 252 253 253 248 251 247 246 246 263 270 278 284 294 299 297 295 273 294 297 288 285 288 283 281 284 278 268 268 273 274 279 282 283 282 283 283 283 283 283 283 282 280 279 277 275 272 270 273 268 264 259 256 256 255 256 252 254 255 256 256 258 259 254
219 236 254 255 248 247 251 253 252 246 248 248 249 253 249 249 250 245 244 244 258 271 278 284 282 290 296 288 278 282 281 285 286 280 278 267 275 275 268 264 269 276 280 280 281 281 282 285 286 284 282 281 280 278 276 274 272 269 266 269 271 266 255 254 254 254 252 253 254 253 253 254 256 257
224 234 243 254 248 246 252 255 250 248 251 248 248 252 251 249 248 241 233 236 241 254 263 275 276 280 280 283 286 292 299 293 282 276 274 274 268 272 271 263 265 273 278 280 280 281 282 283 281 282 284 282 281 278 277 274 273 269 267 265 264 267 261 250 249 252 252 251 252 251 250 252 254 254
230 236 242 247 246 246 252 257 254 253 255 257 256 256 254 249 243 240 237 237 238 244 257 267 278 272 275 289 283 282 279 285 290 287 280 269 259 266 273 269 264 266 265 272 274 276 278 278 279 281 281 283 282 280 277 275 273 270 265 263 261 261 264 258 249 248 249 249 250 250 249 249 252 253
229 233 236 238 239 245 249 252 255 261 259 255 252 248 253 251 250 249 248 244 244 246 252 256 262 271 265 266 282 279 279 276 281 286 295 290 279 256 266 279 266 260 274 270 275 277 278 280 282 280 280 282 281 277 276 274 273 270 267 264 260 259 259 261 255 248 247 247 248 248 247 248 251 252
231 233 238 239 240 246 248 249 252 251 258 259 261 258 253 252 252 251 247 246 249 251 256 260 262 261 267 265 267 273 282 277 281 273 279 282 289 288 268 256 275 273 264 273 272 269 272 274 275 278 277 279 282 285 286 286 280 272 265 262 261 259 257 255 254 251 246 245 245 247 246 247 248 250
242 240 238 241 239 241 251 257 261 261 260 259 259 254 252 254 254 257 247 245 252 256 257 260 256 263 264 264 270 269 274 263 276 276 270 270 274 282 283 271 242 254 266 264 267 267 262 269 263 261 267 278 285 286 286 282 279 273 264 261 258 255 255 252 249 248 247 245 243 245 245 245 247 248
246 250 252 252 260 265 268 270 272 274 275 274 273 275 271 267 268 269 270 265 257 253 253 249 255 254 256 261 260 263 263 272 277 274 277 278 282 280 280 278 266 261 255 265 265 263 252 255 267 267 272 274 275 277 282 286 291 292 285 269 256 252 250 248 246 244 243 243 242 243 244 244 245 245
258 261 261 266 268 270 273 274 274 277 276 276 276 277 278 278 279 282 280 275 266 267 268 272 268 261 270 276 273 276 279 280 275 280 282 279 278 279 286 288 287 221 254 253 268 274 229 239 274 272 263 268 269 272 273 278 281 279 274 278 278 258 245 242 243 243 241 240 241 243 244 243 243 243
260 266 269 269 267 268 267 263 264 270 277 281 280 281 280 279 278 277 277 281 280 274 277 276 272 271 262 276 275 271 273 279 278 277 273 272 275 273 277 276 281 272 206 279 286 282 265 218 263 272 264 266 262 268 276 278 278 273 272 272 272 272 258 242 241 241 242 242 243 243 243 242 241 241
258 263 268 271 269 267 273 278 278 277 273 274 278 281 281 280 280 280 278 278 277 280 278 277 279 275 282 277 275 272 276 277 279 276 275 273 268 265 267 272 277 256 211 273 276 281 278 220 272 267 268 265 268 273 276 275 274 272 269 267 268 267 264 257 250 248 246 244 243 243 242 240 239 238
259 265 266 269 273 273 276 275 276 277 275 273 270 267 265 265 269 275 279 282 283 282 280 278 276 276 272 271 274 273 270 270 268 272 269 266 262 260 260 266 267 267 208 253 274 277 275 269 272 271 272 267 266 265 270 275 276 268 263 263 263 262 259 256 254 254 254 251 246 243 241 239 237 236
261 264 265 268 271 273 276 275 277 281 281 280 280 278 275 273 277 278 276 272 269 270 266 266 266 270 269 268 270 272 272 261 262 261 261 260 256 261 262 261 258 269 244 226 248 262 275 269 267 269 271 271 266 263 271 271 269 264 261 263 263 261 258 260 258 256 256 252 250 244 240 238 236 235
259 259 263 266 268 273 276 279 284 288 290 289 288 289 287 280 273 268 272 283 286 284 280 276 275 274 277 278 278 280 277 267 262 259 256 258 259 263 263 262 265 257 251 221 236 252 268 252 256 269 265 261 267 263 253 264 268 269 265 262 260 260 264 262 260 257 255 255 252 245 239 236 235 233
259 260 260 262 268 275 277 284 289 292 296 296 295 287 281 278 279 283 288 291 293 293 293 292 290 288 287 287 286 285 286 286 288 291 285 272 260 251 254 261 264 263 261 226 218 242 263 252 250 265 262 257 262 268 266 263 261 264 260 257 260 265 263 261 259 256 255 255 253 247 239 234 231 230
256 258 263 267 274 281 284 285 289 296 300 291 283 281 286 294 292 290 298 302 295 291 288 287 287 288 291 296 296 295 293 292 291 286 279 280 283 272 265 274 274 275 250 234 205 254 255 260 239 258 265 263 252 258 261 262 258 256 256 258 259 259 258 261 258 260 262 260 254 247 238 231 227 227
257 259 264 275 279 280 282 288 295 297 297 293 296 303 301 298 300 303 306 300 291 294 306 304 307 302 297 294 289 285 286 285 282 274 269 274 265 266 267 265 273 274 255 220 205 245 258 252 245 247 271 266 258 242 255 256 256 248 243 243 251 253 255 256 264 268 269 267 260 247 237 228 222 221
242 261 279 281 279 282 287 293 295 298 303 305 304 301 301 302 300 302 295 297 308 313 314 307 304 302 301 299 293 289 288 285 276 270 257 253 254 254 259 254 252 257 264 208 208 242 257 246 260 245 259 276 282 274 268 275 262 253 235 239 238 255 262 267 269 269 268 265 261 249 235 226 217 214
254 281 277 279 279 285 290 293 299 305 307 307 306 308 302 294 293 302 307 314 318 313 305 299 294 294 295 300 300 292 291 289 290 290 283 266 253 251 254 254 250 252 253 245 243 245 259 254 258 257 256 256 262 276 266 257 260 253 256 254 261 259 253 257 264 269 274 271 264 243 231 223 214 209
276 276 278 277 281 286 290 300 307 307 307 308 314 302 298 301 307 309 313 319 311 301 300 299 298 299 295 301 300 295 289 287 289 291 293 297 299 286 270 260 258 259 255 250 248 246 250 250 242 249 249 253 261 249 269 265 256 263 259 256 248 251 253 262 265 269 269 270 263 233 223 219 213 208
270 278 274 278 277 288 301 307 306 306 309 315 304 303 307 310 311 315 318 304 301 298 300 299 298 295 293 294 297 293 292 293 294 293 293 293 290 286 285 278 264 260 261 258 245 242 243 251 237 251 253 253 259 255 249 261 261 244 253 246 243 244 251 255 261 269 270 269 260 225 216 214 209 207
270 274 268 265 284 305 308 305 307 310 313 308 307 308 312 315 319 317 306 302 298 295 293 293 290 291 296 300 297 298 298 297 297 294 291 290 288 287 285 282 276 266 260 253 251 244 241 247 243 240 243 250 253 254 260 251 258 262 256 255 248 251 253 253 259 263 268 268 261 219 208 207 205 204
252 262 275 297 307 305 306 310 314 314 311 309 309 313 316 319 314 305 297 295 293 294 292 289 293 292 296 298 296 299 300 299 297 293 290 286 284 281 277 275 274 271 263 256 247 242 241 241 243 242 241 239 248 251 251 259 261 263 257 267 267 248 246 248 249 257 265 271 255 212 204 201 198 198
274 282 296 305 307 309 309 311 309 300 302 309 312 313 313 306 296 292 296 295 292 289 295 295 297 299 300 299 298 297 297 298 296 297 294 295 291 292 293 294 287 282 277 265 251 247 243 241 240 239 241 239 241 250 251 258 256 256 257 255 265 278 259 250 253 252 253 264 254 206 196 195 196 187
360 325 309 304 305 313 308 310 310 309 309 306 300 293 292 289 290 288 282 290 300 300 296 298 296 298 297 295 294 293 295 294 294 296 296 296 296 299 295 291 288 288 280 276 266 250 243 239 237 233 239 244 246 245 249 252 257 258 258 250 255 258 265 251 245 250 262 268 274 221 190 192 190 188
155 307 331 324 310 296 300 304 301 290 285 289 295 293 290 287 283 291 297 298 288 286 289 290 294 292 296 295 292 293 293 295 296 298 296 297 295 296 295 292 289 291 291 288 279 259 242 238 234 233 235 239 245 249 246 249 250 254 257 249 246 253 260 262 262 262 257 265 277 244 196 186 187 186
100 56 344 303 309 311 312 315 310 308 307 300 294 293 296 295 296 293 284 291 295 295 294 294 296 297 296 294 293 294 297 297 298 299 295 292 291 294 288 285 288 290 291 291 287 279 260 240 228 231 232 231 236 239 245 247 245 246 252 251 246 252 258 250 255 261 269 267 270 258 203 183 187 185
95 303 305 285 294 306 312 315 313 312 309 305 306 299 308 305 299 295 296 295 294 296 297 296 298 298 298 296 298 300 300 300 298 298 301 298 297 292 290 287 285 285 285 287 289 288 279 259 240 234 232 235 234 232 233 237 246 248 247 251 244 253 252 254 250 254 256 253 261 265 212 184 185 185
115 203 310 295 305 290 298 293 299 304 303 304 304 307 305 297 299 301 299 299 300 301 301 298 297 297 298 298 300 303 303 302 302 300 298 294 294 289 289 288 288 287 286 285 285 285 283 276 261 249 233 231 237 236 228 231 244 244 251 248 248 246 257 247 248 250 250 255 248 252 230 189 183 183
180 170 253 287 284 298 312 300 297 295 299 301 304 304 306 303 299 303 303 304 306 303 302 301 301 302 301 300 302 303 303 302 301 301 302 302 298 294 287 284 285 285 283 282 285 285 281 276 265 254 251 250 251 249 243 218 222 242 239 251 243 245 250 253 245 249 248 253 248 248 225 193 182 179
147 238 239 254 281 302 294 293 296 298 300 297 298 296 296 301 305 303 299 304 300 299 298 301 303 304 301 301 304 305 304 304 301 302 300 300 296 294 292 289 285 282 283 283 284 286 288 287 276 256 250 250 252 257 258 231 214 216 228 237 248 242 250 253 253 252 244 238 251 244 221 191 181 180
178 229 266 269 268 279 280 295 303 298 295 297 295 295 294 295 298 299 302 304 303 301 302 304 304 304 301 304 309 309 306 302 299 298 299 300 300 297 293 291 290 287 285 283 283 281 279 277 276 268 252 247 254 256 266 254 248 224 214 222 237 245 239 247 248 246 250 239 240 237 208 192 183 177
196 229 257 274 284 296 299 297 293 289 293 293 296 298 301 299 296 301 303 302 303 303 306 308 306 304 304 307 309 309 308 307 305 303 301 300 295 295 294 289 288 287 289 288 286 282 281 280 276 272 257 250 250 257 265 272 258 271 211 210 224 240 241 234 242 243 244 250 242 223 209 188 173 170
229 234 239 252 284 290 285 281 280 281 288 291 294 296 297 300 301 301 303 303 305 309 309 306 305 305 306 310 312 310 305 302 301 300 300 299 296 291 290 291 290 291 291 287 287 284 278 273 273 274 271 256 255 251 255 257 265 259 259 233 214 220 238 236 240 243 248 242 236 209 193 177 179 173
228 231 251 248 271 270 266 272 272 282 286 290 291 295 295 292 298 297 298 308 312 310 307 306 304 304 307 313 314 313 310 306 303 301 300 298 296 296 292 294 290 288 285 283 281 277 273 271 277 281 282 276 261 258 256 256 253 259 257 252 234 223 230 230 236 239 242 243 229 205 187 181 168 169
249 282 285 272 264 271 272 278 285 283 287 288 291 291 292 295 289 304 309 308 304 302 302 304 303 302 307 315 317 315 311 307 306 304 303 302 300 297 293 289 288 291 285 281 280 277 277 281 288 291 291 279 255 243 244 248 258 263 260 264 257 227 225 229 229 231 231 237 223 200 185 170 168 172
276 293 285 275 269 273 280 283 284 284 284 288 289 290 292 296 298 304 304 306 307 307 306 305 302 303 309 316 318 315 310 308 308 305 303 302 301 297 295 288 286 285 282 278 275 276 278 280 279 279 275 274 262 243 247 248 254 258 264 264 263 267 254 235 233 231 227 231 244 228 188 176 165 176
248 255 268 267 278 283 282 278 280 278 283 284 286 291 293 299 303 304 304 305 308 309 307 303 302 306 312 316 316 313 311 308 306 307 306 305 299 294 290 285 286 283 280 277 281 278 278 278 275 273 271 266 263 255 251 256 255 256 263 266 270 268 263 262 245 235 230 230 236 248 204 179 180 169
241 242 253 269 270 277 276 277 276 279 280 282 285 291 297 298 300 302 304 305 305 306 305 304 303 307 314 318 319 317 314 312 310 304 302 300 299 298 295 292 294 292 285 281 282 282 281 280 279 274 265 260 259 259 263 259 264 269 265 262 264 258 259 253 237 220 213 218 234 232 216 188 182 174